DTUSAT 1 27842U 03031C 12037.50019863 .00000155 00000-0 91112-4 0 3246 2 27842 098.6962 048.3317 0008620 218.0661 141.9906 14.21236861446302 CUTE-1 1 27844U 03031E 12036.54514777 .00000208 00000-0 11614-3 0 3039 2 27844 098.7049 046.8485 0008993 245.1425 114.8823 14.20957187446051 QUAKESAT 1 27845U 03031F 12037.07743284 .00000246 00000-0 13449-3 0 3294 2 27845 098.7145 047.1255 0008239 266.1201 093.9031 14.20668053446000 AAU CUBESAT 1 27846U 03031G 12037.00785549 .00000154 00000-0 90855-4 0 2034 2 27846 098.6961 047.8355 0008454 218.3754 141.6822 14.21235505446232 CANX-1 1 27847U 03031H 12036.96142417 .00000167 00000-0 96912-4 0 2180 2 27847 098.6961 047.7665 0008339 221.1327 138.9216 14.21207338446178 CUBESAT XI-IV 1 27848U 03031J 12037.23027864 .00000152 00000-0 90908-4 0 2521 2 27848 098.7133 046.8008 0008731 247.6248 112.3978 14.20717736446092 UWE-1 1 28892U 05043C 12035.68588038 +.00000511 +00000-0 +11453-3 0 01477 2 28892 097.9355 266.5764 0016322 208.6133 151.4168 14.60448524334286 CUBESAT XI-V 1 28895U 05043F 12035.62941974 +.00000621 +00000-0 +13704-3 0 00917 2 28895 097.9354 267.6306 0016939 208.3280 151.6993 14.60471718334162 SSETI-EXPRESS DEB 1 28897U 05043H 12037.13608863 .00000615 00000-0 13510-3 0 6659 2 28897 097.9347 268.9704 0015981 203.6361 156.4091 14.60697834326696 CUTE 1.7 (Decayed 2009-10-25) 1 28941U 06005C 09297.68475575 .14491492 29743-5 25760-3 0 5565 2 28941 098.0955 138.9518 0011688 319.8691 040.7485 16.46998778207909 GENESAT (Decayed 2010-08-04) 1 29655U 06058C 10216.61700559 .10637092 69904-5 33715-3 0 2265 2 29655 040.0059 067.3006 0005079 297.8744 064.7087 16.44862838207776 MAST 1 31126U 07012K 12037.10343175 .00000302 00000-0 77684-4 0 3760 2 31126 097.8806 055.9103 0094217 161.7212 198.7400 14.54025419255072 LIBERTAD 1 1 31128U 07012M 12037.05273833 -.00000045 00000-0 00000+0 0 4432 2 31128 097.8885 052.2624 0101810 174.2933 185.9557 14.52704465254798 CP3 1 31129U 07012N 12035.62208860 +.00000406 +00000-0 +10253-3 0 00860 2 31129 097.8874 051.2602 0101019 177.9936 182.1625 14.52876958254585 CAPE 1 1 31130U 07012P 12037.30200975 .00000606 00000-0 14811-3 0 3889 2 31130 097.8891 052.5740 0101975 173.2629 186.9970 14.52760339254627 CP4 1 31132U 07012Q 12035.57935366 +.00000451 +00000-0 +10780-3 0 03965 2 31132 097.8756 059.3111 0085523 152.2337 208.3464 14.55839237255017 CANX-6 1 32784U 08021B 12037.21544740 .00001126 00000-0 14798-3 0 2237 2 32784 097.8190 100.4814 0016583 128.2998 231.9696 14.82065713204144 CUTE-1.7+APD II 1 32785U 08021C 12036.64597268 .00000600 00000-0 80764-4 0 2218 2 32785 097.8182 100.7529 0015634 132.1977 228.0549 14.82662808204129 COMPASS 1 1 32787U 08021E 12036.68717100 .00001853 00000-0 23132-3 0 2152 2 32787 097.8173 100.8985 0016481 132.2785 227.9826 14.83481495204169 AAUSAT CUBESAT 2 1 32788U 08021F 12037.15562299 .00002142 00000-0 26456-3 0 2078 2 32788 097.8204 101.6722 0016366 130.8212 229.4431 14.83760771204250 DELFI C3 1 32789U 08021G 12037.38660653 .00002356 00000-0 28269-3 0 2225 2 32789 097.8309 103.4650 0015957 127.8941 232.3721 14.84888596204316 CANX-2 1 32790U 08021H 12037.07852895 .00001352 00000-0 17422-3 0 2150 2 32790 097.8159 100.9159 0016078 131.1109 229.1527 14.82579022204166 SEEDS 1 32791U 08021J 12037.16871481 .00001250 00000-0 16002-3 0 2096 2 32791 097.8207 101.2070 0016710 128.8806 231.3886 14.82991269204172 CP6 (Decayed 2011-10-06) 1 35003U 09028C 11276.79285837 .02274821 58283-2 19360-2 0 8114 2 35003 040.4398 174.3672 0011414 274.3918 085.3844 16.13812532134570 HAWKSAT 1 (Decayed 2011-09-04) 1 35004U 09028D 11247.64656856 .16152067 73217-5 10011-2 0 7842 2 35004 040.4403 342.9642 0002956 038.0069 322.2231 16.41039951130139 AEROCUBE 3 (Decayed 2011-01-06) 1 35005U 09028E 11006.09222617 .14049365 73043-5 82692-3 0 6103 2 35005 040.4461 021.7975 0025578 084.1677 280.7191 16.39196088 92544 SWISSCUBE 1 35932U 09051B 12037.32164256 .00005302 00000-0 12986-2 0 3979 2 35932 098.3368 140.9438 0009231 140.4679 219.6854 14.52847237125710 BEESAT 1 35933U 09051C 12037.27499313 .00007908 00000-0 19109-2 0 5632 2 35933 098.3371 141.2712 0007317 157.8363 202.2793 14.53342667125751 UWE-2 1 35934U 09051D 12036.99058731 .00003343 00000-0 81574-3 0 1547 2 35934 098.3275 140.6775 0007093 155.9992 204.1317 14.53280549125714 ITUPSAT 1 1 35935U 09051E 12035.75297920 +.00001955 +00000-0 +48744-3 0 08126 2 35935 098.3405 139.8908 0009128 151.4963 208.6653 14.52719320125487 TISAT 1 1 36799U 10035E 12037.45456800 .00001349 00000-0 17891-3 0 6722 2 36799 098.0747 112.8107 0013978 236.7546 123.2332 14.81489289 84981